Weather Roundup
Issued by NWS Chicago, IL

Home | Current Version | Previous Version | Graphics & Text | Print | Product List | Glossary On
Versions: 1 2 3 4 5 6 7 8 9 10 11 12 13 14 15 16 17 18 19 20 21 22 23 24 25 26 27 28 29 30 31 32 33 34 35 36 37 38 39 40 41 42 43 44 45 46 47 48 49 50
000
NZUS59 KLOT 281110
HRRLOT

CHICAGO AREA WEATHER ROUNDUP
NATIONAL WEATHER SERVICE CHICAGO/ROMEOVILLE IL
500 AM CST FRI NOV 28 2014

NOTE: "FAIR" INDICATES FEW OR NO CLOUDS BELOW 12,000 FEET WITH NO
SIGNIFICANT WEATHER AND/OR OBSTRUCTIONS TO VISIBILITY.

* THESE STATIONS ARE NOT UNDER NWS QUALITY CONTROL. THEY ALSO MAY NOT
  REPORT WEATHER SUCH AS PRECIPITATION OR FOG.

ILZ005-006-012>014-019>023-281200-
NORTHEAST ILLINOIS

CITY           SKY/WX    TMP DP  RH WIND       PRES   REMARKS
OHARE          FLURRIES  19  12  74 S5        30.32F WCI  12
MIDWAY         FLURRIES  22  13  68 S5        30.33F WCI  16
AURORA         CLOUDY    18   9  68 SE5       30.32F WCI  11
LANSING*       CLOUDY    20  15  81 S5        30.34F WCI  14
JOLIET*        CLOUDY    18  13  79 CALM      30.34F
WAUKEGAN       CLOUDY    17  10  74 SE3       30.31F
DUPAGE AIRPORT CLOUDY    18  13  80 SE5       30.31F WCI  11
WHEELING       CLOUDY    20  12  71 S7        30.34F WCI  11
KANKAKEE*      CLOUDY   N/A N/A N/A SE5       30.35F
MORRIS*        CLOUDY    18  15  88 SE3       30.32F
LEWIS AIRPORT* CLOUDY    19  13  78 CALM      30.32F
NORTHERLY IS     N/A     21  11  65 S5          N/A  WCI  15
$$

WIZ051-052-058>065-066-070>072-281200-
SOUTHEAST WISCONSIN

CITY           SKY/WX    TMP DP  RH WIND       PRES   REMARKS
MILWAUKEE      MOCLDY    16   8  71 S5        30.30F WCI   9
KENOSHA*       CLOUDY    17  10  74 SE5       30.30F WCI  10
RACINE*        CLOUDY    16   9  74 CALM      30.32F
BURLINGTON     CLOUDY    14  11  87 SE5       30.29F WCI   6
WEST BEND      CLOUDY    12   9  85 CALM      30.27F
$$

INZ001>003-010>013-019-020-281200-
NORTHWEST INDIANA

CITY           SKY/WX    TMP DP  RH WIND       PRES   REMARKS
GARY*          CLOUDY    23  12  63 CALM      30.35F
MICHIGAN CITY* NOT AVBL
RENSSELAER*    NOT AVBL
VALPARAISO     CLOUDY    19  14  81 S3        30.34F
$$

LMZ740>746-281200-
SOUTHERN LAKE MICHIGAN

STATION/POSITION TIME  SKY/WX   TEMP WIND        PRES    VSBY
                                AIR  DIR/SP/G
                 (UTC)          (F)  (DEG/KT/KT) (MB)    (MI)
HARRISON CRIB    1100            21  190/ 10/ 12   N/A
BURNHAM HARBOR   1100            21  200/  5/  7   N/A
CALUMET HARBOR   1100            21  190/  4/  6 1026.0F
BURNS HARBOR     NOT AVBL
MICHIGAN CITY    1100            21  170/  7/  8   N/A
$$

ABBREVIATIONS USED IN REMARKS
   TC - TEMPERATURE IN CELSIUS
  WCI - WIND CHILL INDEX
   HX - HEAT INDEX
  VSB - VISIBILITY
$$


USA.gov is the U.S. government's official web portal to all federal, state and local government web resources and services.